Tracking 28125 objects as of 4-Oct-2023
HD Live streaming from Space Station
objects crossing your sky now

THORAD AGENA D DEB

Track THORAD AGENA D DEB now!
10-day predictions


NORAD ID: 4855
Int'l Code: 1970-025EK
Perigee: 984.5 km
Apogee: 1,009.6 km
Inclination: 99.9 °
Period: 104.9 minutes
Semi major axis: 7368 km
RCS: 0.055 m2 (small)
Launch date: April 8, 1970
Source: United States (US)
Launch site: AIR FORCE WESTERN TEST RANGE (AFWTR)

Note: This is SATELLITE DEBRIS
Your satellite tracking list
Your tracking list is empty




NASA's NSSDC Master Catalog

Two Line Element Set (TLE):
1 04855U 70025EK  23276.71576036  .00000948  00000-0  10825-2 0  9990
2 04855  99.9176 177.2364 0017049  67.0683 348.5177 13.72698398661381
Source of the keplerian elements: AFSPC